[[{"header":{"parameterUnit":"m.s-1","parameterCategory":1,"la1":30.2992,"la2":30.254,"lo1":-89.0895,"lo2":-89.0443,"dy":0.0025,"dx":0.0025,"nx":19,"ny":19,"refTime":"2026-04-25T09:00:00:Z","depth":0,"parameterNumber":2,"parameterNumberName":"U-component_of_WINDS"},"data":[0,0,0,-0.5641,-0.564,-0.5583,-0.5583,-0.552,-0.552,0,0,0,0,0,0,0,0,0,0,0,-0.5666,-0.5666,-0.5641,-0.564,-0.5583,-0.5583,-0.552,-0.552,0,0,0,0,0,0,0,0,0,0,0,-0.5666,-0.5666,-0.5666,-0.564,-0.5583,-0.5583,-0.552,-0.5559,0,0,0,0,0,0,0,0,0,0,-0.5613,-0.5644,-0.5666,-0.5666,-0.564,-0.5583,-0.5583,-0.5561,-0.5557,-0.5551,0,-0.5549,0,-0.5534,-0.5516,-0.5516,0,0,0,-0.5634,-0.5647,-0.5625,-0.5666,-0.5639,-0.5583,-0.5607,-0.5559,-0.5554,-0.5546,-0.5548,-0.5546,-0.5533,-0.5516,-0.5516,-0.5505,-0.5505,0,0,-0.5637,-0.566,-0.5628,-0.5623,-0.5634,-0.5609,-0.5605,-0.5556,-0.5559,-0.5548,-0.5544,-0.5532,-0.5516,-0.5515,-0.5505,-0.5505,0,0,0,-0.565,-0.5662,-0.5641,-0.5625,-0.5614,-0.5608,-0.5603,-0.5562,-0.5553,-0.5543,-0.5531,-0.5515,-0.5515,-0.5505,-0.5505,-0.554,0,0,0,-0.5652,-0.567,-0.5642,-0.5656,-0.5616,-0.5588,-0.5611,-0.5556,-0.555,-0.5531,-0.5515,-0.5514,-0.5504,-0.5505,-0.5538,-0.5552,0,0,0,-0.5667,-0.5672,-0.5666,-0.5657,-0.5633,-0.5588,-0.5576,-0.5554,-0.5543,-0.5516,-0.5514,-0.5504,-0.5505,-0.5537,-0.555,-0.5556,0,0,0,-0.5689,-0.5697,-0.5667,-0.5671,-0.5634,-0.561,-0.5576,-0.5557,-0.5538,-0.5515,-0.5504,-0.5505,-0.5536,-0.5548,-0.5555,-0.5566,-0.5572,0,0,-0.5712,-0.5701,-0.5701,-0.5672,-0.566,-0.5617,-0.5608,-0.5569,-0.5545,-0.552,-0.5519,-0.5539,-0.5549,-0.5556,-0.5602,-0.5607,0,0,0,-0.5715,-0.5716,-0.5708,-0.5692,-0.5663,-0.5638,-0.5599,-0.5584,-0.5561,-0.5537,-0.5542,-0.5547,-0.555,-0.5554,-0.5559,-0.556,-0.5508,-0.5508,-0.5508,-0.578,-0.5749,-0.5747,-0.571,-0.5695,-0.5654,-0.5638,-0.5611,-0.5584,-0.5586,-0.5578,-0.561,-0.5615,-0.5619,-0.562,-0.5581,-0.5581,-0.5581,-0.5581,-0.5809,-0.5805,-0.577,-0.5756,-0.5723,-0.571,-0.567,-0.5652,-0.5634,-0.5613,-0.5614,-0.5594,-0.5626,-0.5625,-0.5583,-0.5583,-0.5583,-0.5583,-0.5582,-0.5848,-0.5841,-0.5824,-0.5797,-0.5779,-0.574,-0.5725,-0.5696,-0.5668,-0.5668,-0.5657,-0.5656,-0.5652,-0.5665,-0.5665,-0.5665,-0.5665,-0.5665,-0.5665,-0.5896,-0.5875,-0.5867,-0.5836,-0.5822,-0.5799,-0.5756,-0.5741,-0.5716,-0.5695,-0.5695,-0.5668,-0.5635,-0.5627,-0.5667,-0.5667,-0.5667,-0.5666,-0.5666,-0.5938,-0.5924,-0.5911,-0.5897,-0.5858,-0.5842,-0.5804,-0.5775,-0.5757,-0.5751,-0.5723,-0.5704,-0.569,-0.5686,-0.5679,-0.573,-0.573,-0.573,-0.573,-0.5971,-0.5961,-0.5941,-0.592,-0.5896,-0.586,-0.5845,-0.5812,-0.5775,-0.5763,-0.5751,-0.5739,-0.5737,-0.5724,-0.572,-0.5713,-0.5771,-0.5771,-0.5771,-0.5995,-0.5982,-0.5976,-0.5941,-0.5908,-0.588,-0.5865,-0.5841,-0.5796,-0.5772,-0.5752,-0.575,-0.5731,-0.5727,-0.5704,-0.5697,-0.5684,0,0]},{"header":{"parameterUnit":"m.s-1","parameterCategory":1,"la1":30.2992,"la2":30.254,"lo1":-89.0895,"lo2":-89.0443,"dy":0.0025,"dx":0.0025,"nx":19,"ny":19,"refTime":"2026-04-25T09:00:00:Z","depth":0,"parameterNumber":3,"parameterNumberName":"V-component_of_WINDS"},"data":[0,0,0,1.1256,1.1256,1.1245,1.1245,1.1228,1.1227,0,0,0,0,0,0,0,0,0,0,0,1.1259,1.1259,1.1256,1.1256,1.1245,1.1245,1.1228,1.1227,0,0,0,0,0,0,0,0,0,0,0,1.1259,1.1259,1.1259,1.1256,1.1245,1.1245,1.1228,1.1237,0,0,0,0,0,0,0,0,0,0,1.1248,1.125,1.1259,1.1259,1.1256,1.1245,1.1245,1.1237,1.1236,1.1232,0,1.1228,0,1.1228,1.1226,1.1226,0,0,0,1.1256,1.1251,1.1249,1.1259,1.1256,1.1245,1.125,1.1237,1.1236,1.123,1.1228,1.1227,1.1227,1.1226,1.1226,1.12,1.12,0,0,1.1257,1.1256,1.125,1.1248,1.1251,1.1251,1.125,1.1236,1.1233,1.1228,1.1227,1.1227,1.1226,1.1226,1.12,1.12,0,0,0,1.1259,1.1257,1.1255,1.1249,1.1247,1.125,1.1249,1.1234,1.1233,1.1227,1.1227,1.1226,1.1226,1.12,1.12,1.1193,0,0,0,1.1259,1.1258,1.1255,1.1254,1.1247,1.124,1.1247,1.1234,1.1233,1.1227,1.1226,1.1225,1.1201,1.12,1.1193,1.1189,0,0,0,1.126,1.1258,1.1256,1.1254,1.125,1.1241,1.124,1.1234,1.1233,1.1226,1.1225,1.1201,1.12,1.1194,1.119,1.1182,0,0,0,1.126,1.1249,1.1256,1.1243,1.125,1.1237,1.124,1.123,1.1223,1.1226,1.1201,1.12,1.1194,1.119,1.1182,1.1174,1.1171,0,0,1.1246,1.1247,1.124,1.1246,1.1231,1.1239,1.1223,1.1217,1.1216,1.1205,1.1205,1.1193,1.119,1.1182,1.1155,1.1153,0,0,0,1.1235,1.123,1.1226,1.1221,1.1217,1.1212,1.121,1.1207,1.1198,1.1211,1.1188,1.1186,1.1182,1.1178,1.1176,1.1171,1.1199,1.1199,1.1199,1.1213,1.1214,1.1202,1.1201,1.1195,1.1193,1.1188,1.1184,1.1186,1.1181,1.1177,1.1161,1.1156,1.1155,1.115,1.1174,1.1174,1.1173,1.1173,1.1191,1.1183,1.1187,1.1177,1.1177,1.1168,1.1165,1.1166,1.1157,1.1164,1.1159,1.1166,1.1152,1.1148,1.1173,1.1173,1.1173,1.1173,1.1173,1.1176,1.1172,1.1171,1.1162,1.1156,1.1155,1.1146,1.1147,1.1148,1.1144,1.1139,1.1139,1.1139,1.1142,1.1142,1.1142,1.1142,1.1142,1.1141,1.1161,1.1159,1.1152,1.1147,1.1143,1.1138,1.1135,1.1131,1.1127,1.1128,1.1128,1.113,1.1151,1.1156,1.1141,1.1141,1.1141,1.1141,1.1141,1.1137,1.1143,1.1132,1.1128,1.1122,1.1115,1.1116,1.1108,1.1104,1.11,1.1103,1.1119,1.112,1.1122,1.1126,1.1103,1.1103,1.1103,1.1103,1.1124,1.1125,1.1114,1.1108,1.1102,1.1102,1.1088,1.1086,1.1084,1.1081,1.1085,1.109,1.1092,1.1092,1.1095,1.1098,1.1069,1.1069,1.1069,1.1109,1.1109,1.1098,1.1097,1.1093,1.1088,1.1075,1.1067,1.1066,1.1068,1.1079,1.1081,1.109,1.1093,1.1095,1.1098,1.1105,0,0]}]]